Regional Weather Roundup
Issued by NWS

Home | Current Version | Previous Version | Text Only | Print | Product List | Glossary Off
Versions: 1 2 3 4 5 6 7 8 9 10 11 12 13 14 15 16 17 18 19 20 21 22 23 24 25 26 27 28 29 30 31 32 33 34 35 36 37 38 39 40 41 42 43 44 45 46 47 48 49 50

000
ASUS43 KMPX 071810
RWRMN
WEATHER ROUNDUP FOR MINNESOTA
NATIONAL WEATHER SERVICE TWIN CITIES/CHANHASSEN MN
100 PM CDT TUE JUL 07 2015


NOTE: "FAIR" INDICATES FEW OR NO CLOUDS BELOW 12,000 FEET WITH NO
SIGNIFICANT WEATHER AND/OR OBSTRUCTIONS TO VISIBILITY. N/A MEANS
CURRENT SKY AND/OR WEATHER CONDITIONS ARE NOT AVAILABLE.

MNZ060>063-068>070-071900-
   Twin Cities Metro

CITY           SKY/WX    TMP DP  RH WIND       PRES   REMARKS
TWIN CITIES    MOSUNNY   67  46  47 NE13      30.16S
6HR MIN TEMP:  55; 6HR MAX TEMP:  68;

ST PAUL        PTSUNNY   67  47  48 N13       30.16F
CRYSTAL        PTSUNNY   69  46  43 N8        30.15S
BLAINE         MOSUNNY  N/A N/A N/A NE12      30.16S
LAKEVILLE      MOSUNNY   64  48  55 NE7       30.16S
EDEN PRAIRIE   MOSUNNY   68  46  45 NE7       30.15S
6HR MIN TEMP:  55; 6HR MAX TEMP:  68;

SOUTH ST PAUL  PTSUNNY   65  46  48 NE7       30.16S
LAKE ELMO      PTSUNNY   64  46  52 NE8       30.16F
$$
MNZ001>005-007-008-013>017-022>024-027-028-071900-
   Northwest Minnesota

CITY           SKY/WX    TMP DP  RH WIND       PRES   REMARKS
BEMIDJI        SUNNY     66  44  44 W8        30.16F
HALLOCK        SUNNY     68  48  49 SW9       30.12F
ROSEAU         SUNNY     68  50  52 SW8       30.14F
WARROAD        SUNNY     66  48  52 W9        30.14F
THIEF RVR FALL SUNNY     64  43  45 S6        30.16F
CROOKSTON      SUNNY     66  45  45 SW8       30.16F
FOSSTON        SUNNY     66  46  48 CALM      30.17F
DETROIT LAKES  SUNNY     64  37  36 CALM      30.19F
MOORHEAD       SUNNY     66  43  42 CALM      30.18F
PARK RAPIDS    SUNNY     67  41  38 CALM      30.17F
MAHNOMEN       FAIR      65  42  44 CALM      30.17F
$$
MNZ006-009>011-018-025>026-071900-
   North Central Minnesota

CITY           SKY/WX    TMP DP  RH WIND       PRES   REMARKS
BAUDETTE       SUNNY     68  46  45 N9        30.14F
FLAG ISLAND    SUNNY     66  52  59 S8        30.10F
INTL FALLS     SUNNY     69  42  37 W9        30.12F
6HR MIN TEMP:  49; 6HR MAX TEMP:  70;

WASKISH        SUNNY     66  48  52 SW9       30.15S
BIG FORK       SUNNY     70  45  40 CALM      30.15S
LONGVILLE      SUNNY     66  45  45 W7        30.17S
GRAND RAPIDS   SUNNY     66  39  37 N7        30.16S
CRANE LAKE     SUNNY     64  37  36 NW6       30.14F
COOK           SUNNY     66  43  42 CALM      30.14S
WALKER         FAIR      65  42  42 CALM      30.16F
$$
MNZ012-019>021-037-071900-
   Northeast Minnesota

CITY           SKY/WX    TMP DP  RH WIND       PRES   REMARKS
DULUTH         MOSUNNY   67  43  41 N12       30.14F
6HR MIN TEMP:  53; 6HR MAX TEMP:  67;

ELY            SUNNY     64  39  39 NW6       30.12F
HIBBING        SUNNY     68  44  42 NW6       30.14F
DULUTH HARBOR    N/A     66  48  52 E3        30.14F
TWO HARBORS    PTSUNNY   68  54  60 S9        30.11F
SILVER BAY     MOSUNNY   66  46  48 SE8       30.10F
GRAND MARAIS     N/A     61  49  64 W8        30.09S
G MARAIS ARPRT SUNNY     64  39  39 NW10      30.12S
$$
MNZ029>031-032-039>041-046>048-054>057-064-071900-
   West Central Minnesota

CITY           SKY/WX    TMP DP  RH WIND       PRES   REMARKS
FERGUS FALLS   SUNNY     66  45  45 CALM      30.18F
WHEATON        SUNNY     66  46  48 E5        30.21S
MORRIS         SUNNY     66  46  48 NE5       30.19S
ALEXANDRIA     SUNNY     66  45  46 NE6       30.20S
ELBOW LAKE     FAIR      65  44  46 CALM      30.18F
WADENA         MOSUNNY   66  41  39 CALM      30.17F
GLENWOOD       MOSUNNY   66  45  45 E5        30.19F
APPLETON       MOSUNNY   70  43  37 SE5       30.19F
BENSON         MOSUNNY   68  43  40 SE5       30.19F
ORTONVILLE     SUNNY     66  41  39 CALM      30.20S
MADISON        MOSUNNY   64  45  48 CALM      30.20S
WILLMAR        FAIR      66  46  48 SE5       30.21R
$$
MNZ033>034-036-042>043-049>051-058-059-071900-
   Central Minnesota

CITY           SKY/WX    TMP DP  RH WIND       PRES   REMARKS
ST CLOUD       PTSUNNY   66  43  43 CALM      30.17S
6HR MIN TEMP:  51; 6HR MAX TEMP:  68;

SAUK CENTRE    FAIR      65  45  47 N6        30.19S
PAYNESVILLE    MOSUNNY   65  44  47 N5        30.19F
AITKIN         MOSUNNY   68  45  42 SW3       30.15F
PINE RIVER     MOSUNNY   64  45  48 CALM      30.20F
BRAINERD       SUNNY     66  43  43 CALM      30.18S
STAPLES        MOSUNNY   66  39  37 N7        30.17F
LONG PRAIRIE   FAIR      64  43  45 NE5       30.19S
LITTLE FALLS   MOSUNNY   64  43  45 CALM      30.18S
LITCHFIELD     SUNNY     66  46  48 E6        30.19S
BUFFALO        MOSUNNY   66  44  44 N7        30.18S
MAPLE LAKE     MOSUNNY   66  49  54 NE7       30.18F
$$
MNZ037-044-045-052-053-071900-
   East Central Minnesota

CITY           SKY/WX    TMP DP  RH WIND       PRES   REMARKS
PRINCETON      SUNNY     70  45  40 N7        30.17S
MORA           MOSUNNY   64  46  52 CALM      30.18F
CAMBRIDGE      MOSUNNY   68  48  49 NE5       30.15S
RUSH CITY      MOSUNNY   65  47  52 NE5       30.17S
MOOSE LAKE     PTSUNNY   64  41  42 CALM      30.14F
HINCKLEY       MOCLDY    66  46  48 CALM      30.16S
CLOQUET        MOSUNNY   66  43  42 W3        30.15F
MCGREGOR       MOSUNNY   66  41  39 NW6       30.16F
$$
MNZ071>073-080-081-089-090-097-098-071900-
   Southwest Minnesota

CITY           SKY/WX    TMP DP  RH WIND       PRES   REMARKS
MONTEVIDEO     MOSUNNY   70  50  49 E9        30.21F
GRANITE FALLS  MOSUNNY   65  47  52 N7        30.21S
CANBY          MOSUNNY   65  46  48 CALM      30.21F
MARSHALL       PTSUNNY   63  45  51 N8        30.19F
REDWOOD FALLS  PTSUNNY   66  46  48 N8        30.19S
OLIVIA         SUNNY     63  43  48 N6        30.19S
PIPESTONE      MOSUNNY   63  45  51 E3        30.21S
WINDOM         MOSUNNY   64  46  52 N10       30.19S
WORTHINGTON    MOSUNNY   63  46  55 N8        30.20S
JACKSON        MOSUNNY   64  50  59 NE10G21   30.19F
TRACY          MOSUNNY   65  49  54 NE9       30.21S
SLAYTON        PTSUNNY   64  46  52 CALM      30.21F
$$
MNZ065>067-074>077-082>085-091>093-071900-
   South Central Minnesota

CITY           SKY/WX    TMP DP  RH WIND       PRES   REMARKS
MANKATO        MOSUNNY   64  45  48 N10G16    30.17S
NEW ULM        SUNNY     64  45  48 NE9G17    30.18S
ST JAMES         N/A     64  50  59 N9        30.19S
FAIRMONT       PTSUNNY   63  45  51 NE7       30.17F
GLENCOE        PTSUNNY   66  49  54 NE6       30.17F
FARIBAULT      MOSUNNY   64  48  55 VRB10     30.16S
OWATONNA       MOSUNNY   64  46  52 NE6G18    30.16S
WASECA         MOSUNNY   63  45  51 N6G17     30.18S
ALBERT LEA     PTSUNNY   63  48  59 N10G16    30.15F
$$
MNZ078>079-086>088-094>096-071900-
   Southeast Minnesota

CITY           SKY/WX    TMP DP  RH WIND       PRES   REMARKS
ROCHESTER      MOSUNNY   64  48  56 N10G20    30.16S
6HR MIN TEMP:  54; 6HR MAX TEMP:  65;

RED WING       PTSUNNY   66  45  45 NE9       30.13S
STANTON        MOSUNNY   66  48  52 NE9G16    30.15S
DODGE CENTER   SUNNY     63  46  55 NE5       30.15F
WINONA         PTSUNNY   66  46  48 E9        30.14S
AUSTIN         MOSUNNY   64  46  52 N10G17    30.15S
PRESTON        PTSUNNY   60  46  59 NE8G21    30.15S
$$
ABBREVIATIONS USED IN REMARKS
   TC - TEMPERATURES IN CELSIUS
  WCI - WIND CHILL INDEX
   HX - HEAT INDEX
  VSB - VISIBILITY
$$



USA.gov is the U.S. government's official web portal to all federal, state and local government web resources and services.